,

(GMT )
Kejimkujik

Weather History for CWKG - February, 2013

Change the Weather History Date:

Tuesday, February 19, 2013

  Actual Average Record
Temperature  
Mean Temperature 30 °F -  
Max Temperature 39 °F - - ()
Min Temperature 20 °F - - ()
Degree Days  
Heating Degree Days 36    
Moisture  
Dew Point 21 °F    
Average Humidity 74    
Maximum Humidity 91    
Minimum Humidity 40    
Precipitation  
Precipitation 0.21 in - - ()
Sea Level Pressure  
Sea Level Pressure 29.90 in    
Wind  
Wind Speed 7 mph ()    
Max Wind Speed 12 mph    
Max Gust Speed 23 mph    
T = Trace of Precipitation, MM = Missing Value Source: Averaged Metar Reports

Daily Weather History Graph

Daily Weather History Graph

Search for Another Location

Airport or City:

Trip Planner

Search our weather history database for the weather conditions in past years. The results will help you decide how hot, cold, wet, or windy it might be!

Date:

Astronomy

Feb. 19, 2013 Rise Set
Actual Time 7:14 AM AST 5:55 PM AST
Civil Twilight 6:44 AM AST 6:25 PM AST
Nautical Twilight 6:10 AM AST 6:59 PM AST
Astronomical Twilight 5:37 AM AST 7:32 PM AST
Moon 12:16 PM AST (2/19) 2:49 AM AST (2/19)
Length of Visible Light 11h 40m
Length of Day
10h 41m
Waxing Gibbous, 67% of the Moon is Illuminated
Feb 19
Waxing Gibbous
Feb 25
Full
Mar 4
Last Quarter
Mar 11
New
Mar 19
First Quarter

Hourly Weather History & Observations

Time (AST) Temp. Windchill Dew Point Humidity Pressure Visibility Wind Dir Wind Speed Gust Speed Precip Events Conditions
12:00 AM 21.6 °F 11.3 °F 17.6 °F 85% 29.67 in - NW 9.2 mph 18.4 mph N/A   Unknown
1:00 AM 21.6 °F 12.1 °F 17.1 °F 83% 29.70 in - NW 8.1 mph 18.4 mph N/A   Unknown
2:00 AM 21 °F - 16 °F 74% 29.73 in - NW 11.5 mph - -  
2:00 AM 21.2 °F 9.5 °F 16.2 °F 81% 29.73 in - NW 11.5 mph 23.0 mph N/A   Unknown
3:00 AM 20.5 °F 10.8 °F 16.3 °F 84% 29.77 in - NW 8.1 mph - N/A   Unknown
4:00 AM 20.3 °F 9.8 °F 16.7 °F 86% 29.79 in - NW 9.2 mph 20.7 mph N/A   Unknown
5:00 AM 21.0 °F 9.9 °F 17.1 °F 85% 29.82 in - NW 10.4 mph 17.3 mph N/A   Unknown
6:00 AM 21.4 °F 10.4 °F 17.2 °F 84% 29.86 in - NW 10.4 mph 23.0 mph N/A   Unknown
8:00 AM 22 °F - 17 °F 73% 29.91 in - NW 8.1 mph - -  
9:00 AM 25.0 °F 14.2 °F 17.6 °F 74% 29.93 in - NW 11.5 mph 20.7 mph N/A   Unknown
10:00 AM 28.0 °F 18.6 °F 19.4 °F 70% 29.93 in - NW 10.4 mph 23.0 mph N/A   Unknown
11:00 AM 31.3 °F 23.9 °F 20.5 °F 64% - - NW 8.1 mph 19.6 mph N/A   Unknown
12:00 PM 32.9 °F 26.7 °F 21.9 °F 64% 29.96 in - NW 6.9 mph - N/A   Unknown
1:00 PM 36.3 °F 30.8 °F 22.5 °F 57% 29.97 in - NNW 6.9 mph - N/A   Unknown
2:00 PM 38 °F - 22 °F 40% 29.98 in - NNW 5.8 mph - -  
2:00 PM 37.6 °F 33.1 °F 22.5 °F 54% 29.98 in - NNW 5.8 mph - N/A   Unknown
3:00 PM 39.0 °F 35.7 °F 23.9 °F 55% 29.99 in - NW 4.6 mph - N/A   Unknown
4:00 PM 38.1 °F 35.7 °F 24.1 °F 57% 30.00 in - NW 3.5 mph - N/A   Unknown
5:00 PM 35.4 °F 32.6 °F 26.6 °F 70% 30.01 in - WNW 3.5 mph - N/A   Unknown
6:00 PM 31.3 °F 27.9 °F 28.9 °F 91% 30.01 in - West 3.5 mph - N/A   Unknown
7:00 PM 31.1 °F 27.7 °F 28.6 °F 90% 30.02 in - West 3.5 mph - N/A   Unknown
9:00 PM 29.7 °F 26.1 °F 26.8 °F 89% 30.00 in - SSW 3.5 mph - N/A   Unknown
10:00 PM 30.0 °F 26.5 °F 27.5 °F 90% 29.97 in - South 3.5 mph - N/A   Unknown
11:00 PM 30.7 °F 27.3 °F 27.3 °F 87% 29.94 in - South 3.5 mph - N/A   Unknown